Location: Ciserano
(45.5833°N, 9.6000°E)
Time: 18:03:19
(UTC+00:00)

Cosmos 2112 Rocket - Pass Details

Date: 29 November 2020
Orbit: 756 x 787 km, 74.0° (Epoch: 22 January)

Event Time Altitude Azimuth Distance (km) Brightness Sun altitude
Exits shadow 04:38:54 23° 335° (NNW) 1,630 5.4 -20.5°
Maximum altitude 04:42:20 81° 251° (WSW) 802 3.9 -19.9°
Drops below altitude 10° 04:47:39 10° 164° (SSE) 2,337 6.8 -19.0°
Sets 04:50:02 0° 164° (SSE) 3,258 7.6 -18.6°
